Flag for France Weather past 2 weeks in Strasbourg, France

Now
46 °F

Passing clouds.


Feels Like: 42 °F
Forecast: 43 / 48 °F
Wind: 9 mph from Southwest

Location: Strasbourg Airport

Current Time: Mar 31, 2015 at 8:40:31 PM

Latest Report: Mar 31, 2015 at 8:00 PM


Visibility: N/A

Pressure: 29.95 "Hg

Humidity: 76%

Dew point: 39 °F

Location of StrasbourgLocation

Historic Weather in Strasbourg — Graph

°F

Strasbourg temperature yesterday

Maximum temperature yesterday: 55 °F (at 12:00 AM)
Minimum temperature yesterday: 46 °F (at 1:00 PM)
Average temperature yesterday: 51 °F

Past Weeks' High & Low Weather Summary

 TemperatureHumidityPressure
High66 °F (Mar 18, 3:00 PM)93% (Mar 18, 6:30 AM)30.27 "Hg (Mar 18, 6:30 AM)
Low32 °F (Mar 21, 5:00 AM)30% (Mar 20, 4:00 PM)29.62 "Hg (Mar 29, 10:30 PM)
Average48 °F68%29.99 "Hg
* Reported Mar 16 6:00 PM — Mar 31 7:30 PM, Strasbourg, Weather by CustomWeather, © 2015

Note: Actual official high and low records may vary slightly from our data, if they occured in-between our weather recording intervals... More about our weather records

Advertising

Strasbourg weather history for previous 24 hours

 ConditionsComfort  
Time TempWeatherWind HumidityBarometerVisibility
7:30 PM
Tue, Mar 31
46 °FPassing clouds.5 mph76%29.92 "HgN/A
7:00 PM52 °FPartly sunny.22 mph58%29.92 "HgN/A
6:30 PM50 °FBroken clouds.14 mph67%29.89 "HgN/A
6:00 PM54 °FBroken clouds.18 mph63%29.89 "HgN/A
5:30 PM57 °FPartly sunny.20 mph48%29.86 "HgN/A
5:00 PM57 °FBroken clouds.25 mph55%29.83 "HgN/A
4:30 PM57 °FScattered clouds.23 mph51%29.83 "HgN/A
4:00 PM57 °FPartly sunny.20 mph51%29.80 "HgN/A
3:30 PM57 °FOvercast.28 mph55%29.80 "HgN/A
3:00 PM57 °FOvercast.30 mph55%29.77 "HgN/A
2:30 PM57 °FBroken clouds.33 mph59%29.77 "HgN/A
2:00 PM59 °FScattered clouds.32 mph55%29.74 "HgN/A
1:30 PM57 °FPartly sunny.32 mph59%29.74 "HgN/A
1:00 PM57 °FPartly sunny.28 mph59%29.74 "HgN/A
12:30 PM55 °FMostly cloudy.18 mph72%29.74 "HgN/A
12:00 PM57 °FMostly cloudy.22 mph59%29.74 "HgN/A
11:30 AM57 °FPartly sunny.25 mph63%29.74 "HgN/A
11:00 AM57 °FMostly cloudy.29 mph63%29.74 "HgN/A
10:30 AM57 °FOvercast.22 mph67%29.74 "HgN/A
10:00 AM57 °FOvercast.23 mph67%29.71 "HgN/A
9:30 AM55 °FOvercast.20 mph72%29.71 "HgN/A
9:00 AM57 °FOvercast.22 mph63%29.71 "HgN/A
8:30 AM57 °FOvercast.23 mph63%29.68 "HgN/A
8:00 AM57 °FOvercast.24 mph67%29.68 "HgN/A
7:30 AM57 °FOvercast.22 mph67%29.68 "HgN/A
7:00 AM57 °FMostly cloudy.22 mph67%29.68 "HgN/A
6:30 AM59 °FOvercast.22 mph63%29.71 "HgN/A
6:00 AM59 °FOvercast.18 mph68%29.68 "HgN/A
5:30 AM55 °FOvercast.20 mph77%29.68 "HgN/A
4:30 AM54 °FOvercast.20 mph82%29.71 "HgN/A
4:00 AM52 °FOvercast.18 mph82%29.74 "HgN/A
3:30 AM52 °FLight rain. Overcast.20 mph77%29.77 "HgN/A
3:00 AM52 °FOvercast.22 mph77%29.77 "HgN/A
2:30 AM52 °FOvercast.17 mph72%29.80 "HgN/A
1:30 AM52 °FOvercast.13 mph67%29.86 "HgN/A
1:00 AM50 °FOvercast.10 mph67%29.89 "HgN/A
12:30 AM50 °FPartly cloudy.10 mph62%29.92 "HgN/A
12:00 AM50 °FClear.8 mph62%29.92 "HgN/A
11:00 PM
Mon, Mar 30
48 °FPartly cloudy.5 mph62%29.95 "HgN/A
10:30 PM50 °FClear.8 mph54%29.95 "HgN/A
10:00 PM50 °FPassing clouds.9 mph54%29.98 "HgN/A
9:30 PM50 °FPartly cloudy.9 mph54%29.95 "HgN/A
9:00 PM50 °FPassing clouds.7 mph54%29.98 "HgN/A
8:30 PM52 °FMostly cloudy.7 mph50%29.98 "HgN/A
8:00 PM52 °FClear.10 mph47%29.95 "HgN/A
Weather by CustomWeather, © 2015

See weather overviewHow to use our weather pages